• In France
  • List of Countries
  • For 7 days
  • Water Temperature
  • Satellite Maps
  • Weather Map
  • Weather Widgets
  • user-avatar
    Login

    Hourly Weather Starotatyshevo

    Today, 19 July, Thursday

    Time Temperature Precipitation Wind Pressure Humidity
    00:00 +19°C° 0.1 mm 3 mps 749 mmHg 95%
    01:00 +19°C° 0.1 mm 3 mps 748 mmHg 95%
    02:00 +18°C° 0 mm 2 mps 749 mmHg 95%
    03:00 +18°C° 0 mm 2 mps 749 mmHg 95%
    04:00 +17°C° 0 mm 2 mps 749 mmHg 95%
    05:00 +18°C° 0 mm 2 mps 749 mmHg 94%
    06:00 +19°C° 0 mm 2 mps 749 mmHg 92%
    07:00 +20°C° 0 mm 3 mps 749 mmHg 91%
    08:00 +21°C° 0.6 mm 3 mps 749 mmHg 88%
    09:00 +24°C° 0.6 mm 3 mps 749 mmHg 85%
    10:00 +25°C° 0 mm 3 mps 750 mmHg 82%
    11:00 +25°C° 1.6 mm 4 mps 750 mmHg 80%
    12:00 +26°C° 1.6 mm 4 mps 750 mmHg 78%
    13:00 +27°C° 1.6 mm 4 mps 750 mmHg 76%
    14:00 +27°C° 0.7 mm 4 mps 750 mmHg 76%
    15:00 +27°C° 0.7 mm 4 mps 750 mmHg 76%
    16:00 +27°C° 0.7 mm 4 mps 750 mmHg 76%
    17:00 +26°C° 0.2 mm 3 mps 750 mmHg 79%
    18:00 +26°C° 0.2 mm 3 mps 750 mmHg 82%
    19:00 +25°C° 0.2 mm 3 mps 750 mmHg 85%
    20:00 +24°C° 0.1 mm 3 mps 750 mmHg 88%
    21:00 +21°C° 0.1 mm 3 mps 750 mmHg 90%
    22:00 +20°C° 0.1 mm 3 mps 750 mmHg 93%
    23:00 +20°C° 0.2 mm 3 mps 750 mmHg 94%

    Tomorrow, 20 July, Friday

    Time Temperature Precipitation Wind Pressure Humidity
    00:00 +19°C° 0.2 mm 3 mps 751 mmHg 95%
    01:00 +18°C° 0.2 mm 3 mps 751 mmHg 96%
    02:00 +18°C° 0 mm 3 mps 751 mmHg 96%
    03:00 +18°C° 0 mm 3 mps 751 mmHg 97%
    04:00 +17°C° 0 mm 2 mps 751 mmHg 97%
    05:00 +18°C° 0 mm 3 mps 751 mmHg 96%
    06:00 +19°C° 0 mm 3 mps 751 mmHg 95%
    07:00 +19°C° 0 mm 3 mps 751 mmHg 94%
    08:00 +21°C° 0.1 mm 3 mps 751 mmHg 91%
    09:00 +22°C° 0.1 mm 3 mps 751 mmHg 88%
    10:00 +24°C° 0.1 mm 3 mps 751 mmHg 86%
    11:00 +25°C° 0.1 mm 3 mps 751 mmHg 83%
    12:00 +25°C° 0.1 mm 3 mps 751 mmHg 81%
    13:00 +26°C° 0.1 mm 3 mps 752 mmHg 78%
    14:00 +27°C° 0.4 mm 4 mps 752 mmHg 77%
    15:00 +27°C° 0.4 mm 4 mps 752 mmHg 75%
    16:00 +27°C° 0.4 mm 4 mps 752 mmHg 74%
    17:00 +26°C° 0.4 mm 4 mps 752 mmHg 77%
    18:00 +26°C° 0.4 mm 4 mps 752 mmHg 81%
    19:00 +25°C° 0.4 mm 5 mps 752 mmHg 84%
    20:00 +23°C° 0 mm 5 mps 752 mmHg 86%
    21:00 +22°C° 0 mm 5 mps 752 mmHg 88%
    22:00 +20°C° 0 mm 5 mps 752 mmHg 90%
    23:00 +20°C° 0 mm 5 mps 752 mmHg 90%

    Day after tomorrow, 21 July, Saturday

    Time Temperature Precipitation Wind Pressure Humidity
    00:00 +20°C° 0 mm 5 mps 752 mmHg 90%
    01:00 +19°C° 0 mm 5 mps 752 mmHg 90%
    02:00 +19°C° 0.1 mm 5 mps 753 mmHg 91%
    03:00 +19°C° 0.1 mm 5 mps 753 mmHg 92%
    04:00 +19°C° 0.1 mm 5 mps 753 mmHg 93%
    05:00 +19°C° 0.2 mm 6 mps 753 mmHg 92%
    06:00 +20°C° 0.2 mm 6 mps 753 mmHg 91%
    07:00 +20°C° 0.2 mm 6 mps 753 mmHg 90%
    08:00 +21°C° 0 mm 6 mps 754 mmHg 87%
    09:00 +22°C° 0 mm 6 mps 754 mmHg 83%
    10:00 +23°C° 0 mm 7 mps 754 mmHg 80%
    11:00 +24°C° 0.3 mm 7 mps 754 mmHg 77%
    12:00 +24°C° 0.3 mm 7 mps 754 mmHg 73%
    13:00 +26°C° 0.3 mm 7 mps 754 mmHg 70%
    14:00 +26°C° 0 mm 7 mps 754 mmHg 69%
    15:00 +26°C° 0 mm 7 mps 754 mmHg 69%
    16:00 +26°C° 0 mm 7 mps 755 mmHg 68%
    17:00 +24°C° 0 mm 6 mps 755 mmHg 70%
    18:00 +23°C° 0 mm 5 mps 755 mmHg 73%
    19:00 +23°C° 0 mm 4 mps 755 mmHg 75%
    20:00 +21°C° 0 mm 5 mps 755 mmHg 73%
    21:00 +20°C° 0 mm 5 mps 755 mmHg 71%
    22:00 +19°C° 0 mm 5 mps 756 mmHg 69%
    23:00 +19°C° 0 mm 5 mps 756 mmHg 69%

    22 July, Sunday

    Time Temperature Precipitation Wind Pressure Humidity
    00:00 +17°C° 0 mm 5 mps 756 mmHg 69%
    01:00 +16°C° 0 mm 5 mps 756 mmHg 68%
    02:00 +16°C° 0 mm 5 mps 756 mmHg 70%
    03:00 +15°C° 0 mm 5 mps 756 mmHg 72%
    04:00 +14°C° 0 mm 4 mps 756 mmHg 74%
    05:00 +14°C° 0 mm 5 mps 756 mmHg 76%
    06:00 +15°C° 0 mm 5 mps 757 mmHg 77%
    07:00 +15°C° 0 mm 5 mps 757 mmHg 78%
    08:00 +16°C° 0 mm 6 mps 757 mmHg 76%
    09:00 +19°C° 0 mm 6 mps 757 mmHg 73%
    10:00 +20°C° 0 mm 6 mps 757 mmHg 70%
    11:00 +21°C° 0 mm 6 mps 757 mmHg 67%
    12:00 +22°C° 0 mm 6 mps 757 mmHg 63%
    13:00 +23°C° 0 mm 6 mps 757 mmHg 60%
    14:00 +23°C° 0 mm 6 mps 757 mmHg 59%
    15:00 +23°C° 0 mm 6 mps 756 mmHg 59%
    16:00 +23°C° 0 mm 6 mps 756 mmHg 59%
    17:00 +22°C° 0 mm 5 mps 756 mmHg 63%
    18:00 +22°C° 0 mm 5 mps 756 mmHg 67%
    19:00 +21°C° 0 mm 4 mps 756 mmHg 71%
    20:00 +19°C° 0 mm 4 mps 757 mmHg 71%
    21:00 +18°C° 0 mm 4 mps 757 mmHg 71%
    22:00 +17°C° 0 mm 4 mps 757 mmHg 71%
    23:00 +15°C° 0 mm 4 mps 757 mmHg 71%

    23 July, Monday

    Time Temperature Precipitation Wind Pressure Humidity
    00:00 +14°C° 0 mm 4 mps 757 mmHg 71%
    01:00 +14°C° 0 mm 4 mps 758 mmHg 71%
    02:00 +13°C° 0 mm 4 mps 758 mmHg 73%
    03:00 +12°C° 0 mm 4 mps 758 mmHg 75%
    04:00 +12°C° 0 mm 3 mps 758 mmHg 78%
    05:00 +12°C° 0 mm 3 mps 759 mmHg 77%
    06:00 +13°C° 0 mm 4 mps 759 mmHg 77%
    07:00 +14°C° 0 mm 4 mps 759 mmHg 77%
    08:00 +15°C° 0 mm 4 mps 759 mmHg 72%
    09:00 +18°C° 0 mm 4 mps 759 mmHg 68%
    10:00 +19°C° 0 mm 4 mps 759 mmHg 63%
    11:00 +20°C° 0 mm 4 mps 759 mmHg 61%
    12:00 +21°C° 0 mm 5 mps 759 mmHg 59%
    13:00 +22°C° 0 mm 5 mps 759 mmHg 56%
    14:00 +22°C° 0 mm 4 mps 758 mmHg 56%
    15:00 +22°C° 0 mm 4 mps 758 mmHg 56%
    16:00 +23°C° 0 mm 4 mps 758 mmHg 56%
    17:00 +22°C° 0 mm 3 mps 758 mmHg 61%
    18:00 +22°C° 0 mm 3 mps 758 mmHg 65%
    19:00 +21°C° 0 mm 2 mps 758 mmHg 70%
    20:00 +20°C° 0 mm 2 mps 758 mmHg 73%
    21:00 +18°C° 0 mm 2 mps 758 mmHg 75%
    22:00 +17°C° 0 mm 2 mps 758 mmHg 78%
    23:00 +16°C° 0 mm 2 mps 759 mmHg 79%

    24 July, Tuesday

    Time Temperature Precipitation Wind Pressure Humidity
    00:00 +16°C° 0 mm 2 mps 759 mmHg 80%
    01:00 +15°C° 0 mm 2 mps 759 mmHg 81%
    02:00 +15°C° 0 mm 2 mps 759 mmHg 83%
    03:00 +15°C° 0 mm 2 mps 759 mmHg 84%
    04:00 +14°C° 0 mm 1 mps 759 mmHg 85%
    05:00 +16°C° 0 mm 1 mps 760 mmHg 82%
    06:00 +18°C° 0 mm 1 mps 760 mmHg 79%
    07:00 +19°C° 0 mm 1 mps 760 mmHg 77%
    08:00 +21°C° 0 mm 1 mps 760 mmHg 72%
    09:00 +23°C° 0 mm 1 mps 760 mmHg 68%
    10:00 +24°C° 0 mm 2 mps 760 mmHg 63%
    11:00 +25°C° 0 mm 2 mps 760 mmHg 60%
    12:00 +27°C° 0 mm 2 mps 760 mmHg 57%
    13:00 +28°C° 0 mm 2 mps 760 mmHg 55%
    14:00 +28°C° 0 mm 2 mps 760 mmHg 54%
    15:00 +28°C° 0 mm 2 mps 760 mmHg 54%
    16:00 +28°C° 0 mm 2 mps 760 mmHg 54%
    17:00 +28°C° 0 mm 2 mps 759 mmHg 59%
    18:00 +27°C° 0 mm 2 mps 759 mmHg 64%
    19:00 +26°C° 0 mm 1 mps 759 mmHg 68%
    20:00 +25°C° 0 mm 1 mps 759 mmHg 72%
    21:00 +23°C° 0 mm 1 mps 760 mmHg 75%
    22:00 +21°C° 0 mm 1 mps 760 mmHg 78%
    23:00 +21°C° 0 mm 1 mps 760 mmHg 79%
    Show more